This demonstration page uses our WeatherBlox Daily Observations layout. Learn more.

Left ArrowRight Arrow

Hourly Observations for October 30, 2019

Temp ( °F °C ) Dew Point ( °F °C ) Humidity (%) Winds ( mph kmh ) Pressure ( in mb ) Visibility ( mi km ) Precip ( " mm )
12:46 am 00:46 Cloudy with Mist and Fog 40 4.4 39 3.9 97 97 NE 12 19 30.04 1017 2 3 0.00 0.00
12:53 am 00:53 Cloudy with Mist and Fog 40 4.4 39 3.9 97 97 NNE 13 20 29.96 1015 2 3 0.00 0.00
1:10 am 01:10 Cloudy with Mist and Fog 39 3.9 38 3.3 96 96 NNE 15 24 30.06 1018 2 3 0.00 0.00
1:19 am 01:19 Cloudy with Mist and Fog 38 3.3 37 2.8 97 97 NNE 16 26 30.07 1018 2 3 0.00 0.00
1:27 am 01:27 Cloudy with Mist and Fog 38 3.3 36 2.2 93 93 NNE 15 24 30.07 1018 2 3 0.00 0.00
1:51 am 01:51 Cloudy with Mist and Fog 37 3 36 2 93 93 NE 14 22 30.08 1019 2 3 0.00 0.00
1:52 am 01:52 Cloudy with Mist and Fog 37 2.8 36 2.2 96 96 NE 12 19 29.99 1016 2 3 0.00 0.00
2:39 am 02:39 Cloudy with Mist and Fog 36 2.2 35 1.7 97 97 NNE 13 20 30.11 1020 3 5 0.00 0.00
2:50 am 02:50 Cloudy with Mist and Fog 37 3 36 2 93 93 NNE 15 24 30.10 1019 3 4 0.00 0.00
2:53 am 02:53 Cloudy with Mist and Fog 36 2.2 35 1.7 97 97 NNE 16 26 30.00 1016 3 5 0.00 0.00
3:37 am 03:37 Cloudy with Mist and Fog 35 1.7 34 1.1 96 96 NNE 14 22 30.13 1020 3 4 0.00 0.00
3:53 am 03:53 Cloudy with Mist and Fog 35 1.7 34 1.1 96 96 NNE 16 26 30.02 1017 2 3 0.00 0.00
4:43 am 04:43 Cloudy with Mist and Fog 35 1.7 33 0.6 93 93 NNE 14 22 30.14 1021 4 6 0.00 0.00
4:53 am 04:53 Cloudy with Mist and Fog 35 1.7 33 0.6 93 93 NE 12 19 30.02 1017 4 6 0.00 0.00
5:53 am 05:53 Cloudy with Mist and Fog 35 1.7 34 1.1 96 96 NE 10 17 30.04 1017 6 10 0.00 0.00
6:53 am 06:53 Cloudy with Mist and Fog 35 1.7 34 1.1 96 96 NNE 12 19 30.06 1018 5 8 0.00 0.00
7:26 am 07:26 Cloudy 35 1.7 34 1.1 96 96 NNE 12 19 30.20 1023 7 11 0.00 0.00
7:36 am 07:36 Cloudy 35 1.7 34 1.1 96 96 NNE 12 19 30.20 1023 8 13 0.00 0.00
7:50 am 07:50 Cloudy 36 2 34 1 93 93 NNE 12 19 30.20 1023 10 16 0.00 0.00
7:53 am 07:53 Cloudy 35 1.7 33 0.6 93 93 NNE 12 19 30.10 1019 10 16 0.00 0.00
8:00 am 08:00 Cloudy 35 1.7 33 0.6 93 93 NNE 10 17 30.21 1023 10 16 0.00 0.00
8:17 am 08:17 Cloudy 35 1.7 33 0.6 93 93 NE 12 19 30.21 1023 10 16 0.00 0.00
8:39 am 08:39 Cloudy 36 2.2 33 0.6 89 89 NNE 12 19 30.22 1023 10 16 0.00 0.00
8:53 am 08:53 Cloudy 36 2.2 34 1.1 93 93 NNE 9 15 30.13 1020 10 16 0.00 0.00
9:00 am 09:00 Cloudy 36 2.2 33 0.6 89 89 NE 10 17 30.23 1024 10 16 0.00 0.00
9:08 am 09:08 Cloudy 36 2.2 34 1.1 93 93 NNE 10 17 30.24 1024 9 14 0.00 0.00
9:53 am 09:53 Cloudy 36 2.2 33 0.6 89 89 NNE 12 19 30.17 1022 9 14 0.00 0.00
10:07 am 10:07 Cloudy 37 2.8 33 0.6 86 86 NNE 10 17 30.26 1025 10 16 0.00 0.00
10:53 am 10:53 Cloudy 37 2.8 33 0.6 86 86 NNE 12 19 30.19 1022 10 16 0.00 0.00
11:53 am 11:53 Cloudy 38 3.3 33 0.6 83 83 NNE 10 17 30.22 1023 10 16 0.00 0.00
12:51 pm 12:51 Cloudy 41 5 32 0 70 70 NNE 14 22 30.28 1025 10 16 0.00 0.00
12:53 pm 12:53 Cloudy 41 5 32 0 70 70 NNE 15 24 30.22 1023 10 16 0.00 0.00
1:53 pm 13:53 Cloudy 44 6.7 31 -0.6 60 60 N 15 24 30.22 1023 10 16 0.00 0.00
2:50 pm 14:50 Partly Cloudy 45 7 30 -1 57 57 NNW 16 26 30.25 1024 10 16 0.00 0.00
2:53 pm 14:53 Partly Cloudy 44 6.7 30 -1.1 58 58 NNW 14 22 30.21 1023 10 16 0.00 0.00
3:02 pm 15:02 Mostly Cloudy 44 6.7 30 -1.1 58 58 N 18 30 30.26 1025 10 16 0.00 0.00
3:45 pm 15:45 Partly Cloudy 45 7.2 29 -1.7 54 54 NNW 17 28 30.26 1025 10 16 0.00 0.00
3:53 pm 15:53 Partly Cloudy 45 7.2 29 -1.7 54 54 N 16 26 30.23 1024 10 16 0.00 0.00
4:53 pm 16:53 Cloudy 43 6.1 28 -2.2 56 56 NNE 14 22 30.26 1025 10 16 0.00 0.00
5:53 pm 17:53 Mostly Sunny 45 7.2 27 -2.8 49 49 NE 15 24 30.27 1025 10 16 0.00 0.00
6:53 pm 18:53 Sunny 43 6.1 23 -5 45 45 N 13 20 30.29 1026 10 16 0.00 0.00
7:53 pm 19:53 Clear 40 4.4 23 -5 51 51 NNE 6 9 30.33 1027 10 16 0.00 0.00
8:53 pm 20:53 Clear 37 2.8 23 -5 57 57 NE 6 9 30.36 1028 10 16 0.00 0.00
9:53 pm 21:53 Clear 33 0.6 22 -5.6 64 64 NE 5 7 30.39 1029 10 16 0.00 0.00
10:53 pm 22:53 Clear 31 -0.6 22 -5.6 69 69 NE 8 13 30.42 1030 10 16 0.00 0.00
11:53 pm 23:53 Clear 31 -0.6 21 -6.1 67 67 NE 10 17 30.44 1031 10 16 0.00 0.00

Powered by AerisWeather